User: anonymous   Login
Location: *
(53.4003°S, 165.3236°W)
Time: 12:05:28
(UTC+00:00)
Language:

Cosmos 2237 Rocket - Orbit

View from above orbital plane
View from above orbital plane
View from above satellite
View from above satellite

Ground track
Ground track

The orbit data is extracted from the following two-line orbital elements,

1 22566U 93016B   24114.66801735  .00000480  00000-0  27156-3 0  9994
2 22566  71.0083 213.7418 0012387 282.9535  77.0204 14.15124408605251
Epoch (UTC): 23 April 2024 16:01:56
Eccentricity: 0.0012387
inclination: 71.0083°
perigee height: 833 km
apogee height: 851 km
right ascension of ascending node: 213.7418°
argument of perigee: 282.9535°
revolutions per day: 14.15124408
mean anomaly at epoch: 77.0204°
orbit number at epoch: 60525

The dashed part of the orbit path shows where the satellite is in the earth's shadow,  

DLR